Location: Unspecified
(48.2082°N, 0.0000°E)
Time: 19:36:09
(UTC+00:00)

S-56A Canister/Altair - Pass Details

Date: 28 June 2019
Orbit: 633 x 2499 km, 38.9° (Epoch: 19 August)

Event Time Altitude Azimuth Distance (km) Brightness Sun altitude
Rises 16:23:44 0° 259° (W) 5,350 12.9 33.5°
Reaches altitude 10° 16:27:52 10° 254° (WSW) 4,060 12.6 32.8°
Maximum altitude 16:37:13 44° 188° (S) 1,720 9.7 31.3°
Drops below altitude 10° 16:43:33 10° 118° (ESE) 2,757 10.0 30.2°
Sets 16:45:51 0° 111° (ESE) 3,516 10.4 29.8°
